Location: Newark
(43.4000°N, 45.7167°E)
Time: 11:02:05
(UTC+00:00)

ISS - Visible Passes

Search period start: 20 March 2019 00:00
Search period end: 30 March 2019 00:00
Orbit: 406 x 411 km, 51.6° (Epoch: 20 March)

Date Brightness Start Highest point End Pass type
(mag) Time Alt. Az. Time Alt. Az. Time Alt. Az.
20 Mar -1.2 17:10:36 10° SW 17:11:09 14° SW 17:11:09 14° SW visible
21 Mar -2.8 16:20:03 10° SSW 16:22:55 28° SE 16:23:18 27° SE visible
22 Mar -3.5 17:05:01 10° WSW 17:08:00 64° WNW 17:08:00 64° WNW visible
23 Mar -3.9 16:14:00 10° SW 16:17:17 68° SE 16:19:41 17° ENE visible
23 Mar -0.9 17:51:11 10° WNW 17:52:28 18° WNW 17:52:28 18° WNW visible
24 Mar -2.4 16:59:47 10° W 17:02:53 36° NNW 17:03:57 28° NNE visible
25 Mar -3.1 16:08:29 10° WSW 16:11:44 54° NNW 16:14:59 10° NE visible
25 Mar -1.1 17:46:14 10° WNW 17:48:02 19° NNW 17:48:02 19° NNW visible
26 Mar -1.7 16:54:46 10° WNW 16:57:32 24° NNW 16:59:14 16° NNE visible
27 Mar -2.1 16:03:18 10° W 16:06:17 31° NNW 16:09:17 10° NE visible
27 Mar -1.3 17:41:06 10° NW 17:43:04 18° NNW 17:43:04 18° NNW visible
28 Mar -1.5 16:49:43 10° NW 16:52:14 20° N 16:54:05 13° NE visible
28 Mar -0.2 18:26:47 10° NW 18:26:49 10° NW 18:26:49 10° NW visible
29 Mar -1.7 15:58:14 10° WNW 16:00:55 22° NNW 16:03:35 10° NE visible
29 Mar -1.5 17:35:40 10° NW 17:37:47 20° N 17:37:47 20° N visible
